THORAD AGENA D DEB, 17720

Orbit data source: Space-Track

THORAD AGENA D DEB, 17720 is space debris in SSO originally from a launch on Wed, 08 Apr 1970 UTC launched from the Air Force Western Test Range (AFWTR). Debris objects in space refer to the collection of defunct objects orbiting the Earth. Examples of debris include non-operational satellites, rocket bodies, and fragments generated from explosions, collisions, or faulty payload assembly.

Loading next visibility...
Identifier
17720, 1970-025PJ
Orbit
SSO
Country
Flag of USUS
Related business
Manufacturer
Unknown
Mission
Spacecraft
Bus & Motor
Unknown
Mass
Unknown
Launch date (UTC)
1970-04-08 (56 years ago)
Launch vehicle
Unknown
Launch site
Air Force Western Test Range (AFWTR)
Object type
Payload
Rocket body
Debris
Shape & HBR
Unknown shape, 0.1 m
Radar Cross Section
Medium (>0.1 m² and <1 m²)

Expand to show TLE details & history
Last TLE update: 12 hours ago

TLE from 12 hours ago
0 THORAD AGENA D DEB
1 17720U 70025PJ  26208.19193763  .00003674  00000-0  16014-2 0  9992
2 17720  99.6113 109.4176 0032107  79.7105  74.0280 14.24380359111540
Epoch: 2026-07-27T04:36Z
TLE epoch observation values (Epoch: 2026-07-27T04:36:23.411Z)
Latitude
25.55008°
Longitude
-79.94035°
Altitude
807.362 km
Speed
7.455 km/s
True Right ascension
19h 36m 08s
True Declination
25° 25' 03"
Sunlit
Object was in full shadow at epoch
Visualization orbit readout
Latitude
Unknown
Longitude
Unknown
Altitude
Unknown
Speed
Unknown
Apparent Right ascension
Unknown
Apparent Declination
Unknown
Sunlit
N/A
Visualization observer readout
Local Sidereal Time
05:57:10
Azimuth
Unknown
Elevation
Unknown
Doppler factor
Unknown
Orbital elements
Apogee altitude
830.847 km
Perigee altitude
784.703 km
Semi-major axis
7,185.912 km
Eccentricity
0.00321
Inclination
99.6113°
RAAN
109.4176°
Arg. of periapsis
79.7105°
True anomaly
74.3821°
Mean anomaly
74.028°
Eccentric anomaly
74.20501°
Mean motion
3.56304 °/min
Orbital period
101.04 mins
BSTAR
0.0016014
Loading maneuver chart data...
Computing Atmospheric mass density...

Documentation

Showing up to 5 results
|